User: anonymous   Login
Location: Unspecified
(0.0000°N, 0.0000°E)
Time: 06:37:54
(UTC+00:00)
Language:

AIST 1 - Orbit

View from above orbital plane
View from above orbital plane
View from above satellite
View from above satellite

Ground track
Ground track

The orbit data is extracted from the following two-line orbital elements,

1 39492U 13078C   18349.80840961  .00000180  00000-0  16960-4 0  9992
2 39492  82.4200  20.0780 0020980  28.9612 331.2764 14.87775205269491
Epoch (UTC): 15 December 2018 19:24:06
Eccentricity: 0.0020980
inclination: 82.4200°
perigee height: 590 km
apogee height: 619 km
right ascension of ascending node: 20.0780°
argument of perigee: 28.9612°
revolutions per day: 14.87775205
mean anomaly at epoch: 331.2764°
orbit number at epoch: 26949

The dashed part of the orbit path shows where the satellite is in the earth's shadow,  

DLR